sat.trackr.live / text

‹ back to catalog

SELENE

NORAD 69020 · 2026-100AS

PAYLOAD ACTIVE UNKNOWN

§ Identity

Operator
Country
GREC
Launch date
2026-05-03
Launch site
AFWTR
Launch vehicle
Mass (kg)
RCS (m²)

External: N2YO · Heavens-Above · Gunter

§ Orbital elements

Epoch: 2026-05-24T23:59:27.962880Z

Period
94.76 min
Inclination
97.4066°
Eccentricity
0.0005981
Mean motion
15.19566359 rev/d
Perigee alt
503.0 km
Apogee alt
511.3 km
Semi-major
6,885.3 km
B*
3.7493e-4
RAAN
43.2136°
Arg perigee
70.9533°
Mean anomaly
289.2349°
Rev number
328

§ Raw data

SELENE1 69020U 26100AS  26144.99962920  .00007913  00000+0  37493-3 0  99972 69020  97.4066  43.2136 0005981  70.9533 289.2349 15.19566359  3280

JSON: /api/v1/satellites/69020 · /tle

For live sub-satellite position, see the globe view (requires WebGL).

§ Visibility from observer

Set your observer location to see the next 7 days of passes ≥ 10°. The values pass through the URL so the page stays shareable.

No JS? Fill the form by hand. The geolocation button needs JavaScript.

§ Radio — SatNOGS DB

ModeDescriptionDownlinkUplink
FSK S Band 2.255 GHz

1 transmitter · refreshed weekly from db.satnogs.org